#timestamp,LO_Frequency,Hit,StdDev 
1552154415.5,286047004.9,N
1552154435.3,286047005.4,N
1552154455.2,286047004.0,N
1552154475.9,286047001.1,N
1552154495.7,286046997.2,N
1552154515.6,286046993.3,N
1552154535.4,286046992.7,N
1552154555.2,286046991.3,N
1552154575.1,286046986.3,N
1552154576.0,286046992.3,N
1552154595.8,286046990.2,N
1552154615.7,286046992.5,N
1552154635.5,286046990.3,N
1552154655.3,286046992.3,N
1552154675.2,286046995.9,N
1552154695.9,286046996.3,N
1552154715.7,286046993.7,N
1552154735.6,286046993.7,N
1552154755.4,286046996.3,N
1552154775.3,286046996.6,N
1552154795.1,286046998.9,N
1552154796.0,286046998.9,N
1552154815.8,286047001.2,N
1552154835.7,286047000.0,N
1552154855.5,286047001.9,N
1552154875.3,286047001.6,N
1552154895.2,286047002.9,N
1552154915.0,286047003.1,N
1552154915.9,286047003.1,N
1552154935.8,286047002.5,N
1552154955.6,286046998.2,N
1552154975.4,286046998.6,N
1552154995.3,286046998.3,N
1552155015.1,286047000.6,N
1552155035.8,286047001.1,N
1552155055.7,286046998.5,N
1552155075.5,286047001.1,N
1552155095.4,286047000.5,N
1552155115.2,286047000.3,N
1552155135.0,286046999.7,N
1552155135.9,286046999.7,N
1552155155.8,286047000.6,N
1552155175.6,286047000.5,N
1552155195.5,286046998.7,N
1552155215.3,286046998.5,N
1552155235.1,286046999.8,N
1552155255.9,286047000.0,N
1552155275.7,286047000.1,N
1552155295.5,286047001.9,N
1552155315.4,286047001.7,N
1552155335.2,286047001.8,N
1552155355.1,286047003.2,N
1552155356.0,286047003.2,N
1552155375.8,286047003.4,N
1552155395.6,286047004.3,N
1552155415.5,286047007.6,Y
1552155435.3,286047004.2,P
1552155455.2,286047003.6,N
1552155475.9,286047004.0,N
1552155495.7,286047002.3,N
1552155515.6,286047002.2,N
1552155535.4,286047001.1,N
1552155555.2,286047000.4,N
1552155575.1,286047000.9,N
1552155576.0,286047000.9,N
1552155595.8,286047002.4,N
1552155615.7,286047002.2,N
1552155635.5,286047003.9,Y
1552155655.3,286046999.8,P
1552155675.2,286047001.5,N
1552155695.0,286047003.8,P
1552155695.9,286047003.8,N
1552155715.7,286047003.4,N
1552155735.6,286047003.6,N
1552155755.4,286047003.0,N
1552155775.3,286047006.0,Y
1552155795.1,286047003.0,P
1552155815.8,286047003.1,P
1552155835.7,286047003.6,P
1552155855.5,286047004.2,Y
1552155875.4,286047000.7,P
1552155895.2,286047000.4,N
1552155915.0,286046998.8,N
1552155915.9,286046998.8,N
1552155935.8,286046996.9,N
1552155955.6,286046996.7,N
1552155975.4,286046996.8,N
1552155995.3,286046997.6,N
1552156015.1,286046995.7,N
1552156035.9,286046996.4,N
1552156055.7,286046992.9,Y
1552156075.5,286046990.5,P
1552156095.4,286046989.1,N
1552156115.2,286046985.7,P
1552156135.1,286046982.2,Y
1552156136.0,286046982.2,P
1552156155.8,286046990.2,N
1552156175.6,286046988.9,N
1552156195.5,286046987.6,Y
1552156215.3,286046999.1,P
1552156235.1,286046996.7,N
1552156255.9,286046997.8,N
1552156275.7,286046995.3,N
1552156295.6,286046993.8,N
1552156315.4,286046994.1,N
1552156335.2,286046992.9,N
1552156355.1,286046992.9,N
1552156356.0,286046992.9,N
1552156375.8,286046991.1,Y
1552156395.7,286046997.0,P
1552156415.5,286046999.0,N
1552156435.3,286047001.6,N
1552156455.2,286047005.7,N
1552156475.0,286047004.7,N
1552156475.9,286047004.7,N
1552156495.7,286047005.7,N
1552156515.6,286047005.1,N
1552156535.4,286047005.4,N
1552156555.3,286047002.1,N
1552156575.1,286046999.7,N
1552156576.0,286046999.7,N
1552156595.8,286047001.9,N
1552156615.7,286047002.8,N
1552156635.5,286047001.2,N
1552156655.3,286047002.5,N
1552156675.2,286047002.1,N
1552156695.0,286047001.3,N
1552156695.9,286047001.3,N
1552156715.8,286047007.5,N
1552156735.6,286047004.6,N
1552156755.4,286047006.1,N
1552156775.3,286047008.6,N
1552156795.1,286047012.2,Y
1552156815.9,286047010.8,P
1552156835.7,286047010.8,N
1552156855.5,286047007.7,N
1552156875.4,286047011.5,Y
1552156895.2,286047005.9,P
1552156915.0,286047004.7,P
1552156915.9,286047004.7,P
1552156935.8,286047004.5,Y
1552156955.6,286046999.8,P
1552156975.5,286047003.9,N
1552156995.3,286047001.8,N
1552157015.1,286047003.2,N
1552157035.9,286047004.4,N
1552157055.7,286047005.2,N
1552157075.6,286047007.1,Y
1552157095.4,286047003.3,P
1552157115.2,286047002.9,P
1552157135.1,286047003.9,P
1552157136.0,286047003.9,Y
1552157155.8,286046997.1,P
1552157175.7,286046995.8,N
1552157195.5,286046992.9,N
1552157215.3,286046989.2,N
1552157235.2,286046985.7,Y
1552157255.0,286046988.5,P
1552157255.9,286046988.5,P
1552157275.7,286046991.6,N
1552157295.6,286046991.6,N
1552157315.4,286046990.4,Y
1552157335.3,286047002.3,P
1552157355.1,286047002.6,N
1552157356.0,286047002.6,N
1552157375.8,286047002.4,N
1552157395.7,286047003.5,N
1552157415.5,286047003.0,N
1552157435.4,286047007.3,N
1552157455.2,286047006.3,N
1552157475.0,286047010.8,N
1552157475.9,286047010.8,N
1552157495.8,286047009.4,N
1552157515.6,286047010.2,N
1552157535.4,286047010.3,N
1552157555.3,286047011.3,N
1552157575.1,286047013.1,N
1552157595.9,286047011.5,N
1552157615.7,286047014.0,N
1552157635.5,286047012.2,N
1552157655.4,286047009.3,N
1552157675.2,286047009.6,N
1552157695.0,286047009.6,N
1552157695.9,286047009.6,N
1552157715.8,286047011.4,N
1552157735.6,286047013.8,N
1552157755.5,286047013.5,N
1552157775.3,286047012.9,N
1552157795.1,286047013.4,N
1552157815.9,286047013.5,N
1552157835.7,286047012.6,N
1552157855.5,286047013.9,N
1552157875.4,286047012.6,Y
1552157895.2,286047004.1,P
1552157915.1,286047005.7,N
1552157916.0,286047005.7,N
1552157935.8,286047004.8,N
1552157955.6,286047007.1,Y
1552157975.5,286047002.4,P
1552157995.3,286047001.6,N
